RH
33 35 45 49 49 50 51 49 48 46 40 40 38 37 40 38 38 40 50 54 57 60 65 65 64 66 59 52 46 48 46 50 63 57 66 75 75 74 73 69 68 69 70
44 47 50 54 51 49 50 47 42 41 42 40 40 43 40 38 38 41 44 51 54 59 65 67 66 68 62 52 48 53 54 57 68 78 93 95 78 71 73 69 65 63 62
40 54 64 58 53 52 46 38 39 42 42 41 44 42 38 38 37 38 41 48 54 58 62 67 68 69 63 52 49 54 58 60 64 72 77 88 95 94 74 70 67 61 60
38 52 64 61 54 48 40 38 41 44 43 43 44 39 38 40 41 41 43 46 53 59 61 63 69 70 63 52 50 55 58 59 67 68 73 78 88 93 94 72 69 55 54
36 52 62 53 50 44 36 39 44 44 44 44 43 39 39 38 40 39 40 43 49 55 60 64 70 71 66 59 52 54 57 59 64 70 76 78 81 91 92 94 84 57 62
43 53 50 51 47 40 37 43 46 44 45 45 42 39 39 38 36 36 37 41 44 51 60 63 68 71 69 65 58 54 53 58 61 69 76 80 82 83 86 92 89 88 67
47 51 51 49 44 39 39 45 47 44 45 44 40 37 34 33 33 35 37 41 46 51 59 62 64 66 66 64 59 55 53 54 57 62 69 71 81 86 86 89 89 90 77
47 48 47 44 41 38 40 44 43 41 44 42 38 37 36 34 35 36 33 33 42 49 56 61 64 66 66 64 62 58 54 52 51 53 56 61 63 68 78 83 83 87 87
40 46 41 41 40 39 40 41 44 43 46 42 39 37 36 33 32 33 31 30 36 40 45 52 54 59 62 63 63 60 57 55 53 53 55 57 58 62 65 72 77 77 87
39 45 47 40 35 37 38 41 41 41 42 43 39 36 35 34 33 33 32 32 32 34 35 36 43 52 58 60 60 59 59 58 56 55 54 54 54 55 57 62 67 73 80
46 48 48 41 37 34 36 39 40 41 44 45 41 38 36 35 34 33 33 34 32 30 29 29 31 36 43 55 60 60 60 60 59 57 57 55 55 54 55 58 61 66 78
51 53 51 47 44 39 35 33 34 39 40 43 43 40 38 38 36 34 34 35 34 32 29 28 27 28 33 44 52 56 60 62 61 60 62 60 60 60 59 59 60 62 64
54 57 56 54 49 46 44 41 38 38 40 46 46 44 41 40 37 37 36 36 36 34 31 28 27 27 30 34 37 42 48 53 56 58 60 59 61 60 60 62 64 63 63
55 58 58 58 53 49 50 49 45 43 43 47 49 47 44 42 41 40 40 40 38 37 36 32 29 28 30 34 34 36 40 41 43 50 53 47 40 40 49 60 66 68 70
56 57 60 60 56 55 52 50 50 49 51 51 52 48 47 47 46 44 44 44 44 42 40 37 34 30 29 30 34 34 34 36 36 40 39 32 26 28 36 53 60 72 77
68 68 67 65 62 64 64 59 57 53 52 55 58 60 60 58 55 53 52 52 51 49 46 42 38 35 31 29 34 37 38 39 38 36 35 36 34 30 27 32 62 79 81
83 82 80 78 79 79 74 66 63 63 66 69 69 68 67 64 61 62 63 62 61 58 54 49 45 41 36 32 34 37 40 40 39 40 38 38 37 38 36 31 39 56 84
96 95 88 86 85 73 69 68 64 62 61 61 64 66 65 66 66 66 68 68 69 66 62 57 52 50 43 37 38 41 49 49 44 42 41 43 38 37 39 36 32 30 33
86 91 100 94 95 90 80 72 70 68 64 63 63 66 68 70 71 75 83 84 85 84 85 84 80 67 54 43 45 53 55 54 49 42 42 42 41 39 40 44 42 39 33
83 86 91 89 84 80 77 79 84 80 79 74 74 71 61 66 74 77 79 80 77 72 67 65 64 62 58 51 58 61 64 69 61 52 50 47 45 42 43 51 52 58 43
84 80 72 78 74 72 69 69 67 70 68 65 60 56 58 57 52 58 60 60 57 70 80 86 86 85 87 89 82 80 69 71 66 61 50 43 43 45 45 52 65 60 47
78 76 81 75 64 62 68 70 66 62 64 63 60 58 56 54 55 54 49 46 49 55 51 53 50 43 45 54 48 51 60 69 76 67 56 52 47 49 56 58 57 62 75
68 61 67 66 46 42 49 61 43 44 52 60 58 53 48 48 48 47 46 51 48 51 48 48 49 45 43 41 38 41 46 51 58 57 53 48 46 48 52 47 50 72 79
66 61 66 69 63 51 47 41 38 36 44 50 50 50 49 50 49 48 49 52 54 54 54 55 56 48 48 46 41 49 40 42 54 48 51 53 53 63 62 58 61 74 87
65 64 66 67 63 55 53 52 45 39 43 46 47 49 51 51 53 54 56 60 55 64 67 65 66 72 75 67 65 65 70 70 75 82 88 90 80 68 66 73 79 85 82
69 69 67 67 64 62 54 47 50 48 46 50 56 57 66 63 64 64 58 47 56 59 71 72 75 77 83 83 87 90 89 86 84 82 84 83 85 93 90 87 84 80 73
Wind_Speed
8 16 19 17 15 14 13 11 10 8 6 4 4 4 5 9 5 6 8 8 7 8 9 8 8 9 10 10 11 12 13 12 19 10 6 7 12 13 12 12 11 11 10
6 12 20 18 18 17 14 12 10 9 7 5 4 3 6 6 8 6 9 8 7 8 8 9 8 8 8 8 9 10 10 7 13 7 2 3 2 8 10 9 11 11 9
8 7 14 23 20 18 16 13 11 10 8 6 4 4 5 4 4 6 8 9 8 8 8 8 8 7 8 7 7 7 8 8 7 8 4 2 1 4 2 5 9 11 9
4 5 12 18 23 20 15 13 13 12 9 7 6 5 5 3 4 8 9 8 7 7 8 8 8 7 8 7 6 6 6 6 6 2 6 2 1 1 3 2 3 12 11
5 7 12 24 22 18 16 15 14 13 11 9 8 7 5 4 5 6 8 7 6 7 6 6 6 6 7 8 7 7 6 6 5 4 3 2 1 1 1 3 6 9 11
6 5 8 16 18 16 16 17 16 14 12 10 9 8 5 5 5 5 6 7 6 5 4 5 5 7 7 8 8 7 7 7 6 5 3 2 1 1 1 1 3 4 5
4 2 5 12 16 18 18 18 16 15 13 13 12 10 8 8 6 5 6 6 6 5 4 5 5 7 7 8 7 7 6 6 7 6 6 5 5 5 3 2 2 1 3
4 4 6 11 17 19 20 19 20 20 19 17 14 12 10 9 7 7 6 7 7 7 7 7 8 7 8 9 9 8 8 7 7 7 7 7 6 7 7 5 2 1 2
6 7 9 15 19 20 22 21 20 20 19 18 16 14 13 11 10 8 8 8 8 8 8 8 8 9 9 9 9 10 9 9 9 9 9 9 8 7 8 8 7 3 1
6 6 8 16 20 21 22 20 22 23 21 20 19 17 15 13 11 10 10 9 9 9 10 10 9 9 9 10 10 10 10 11 11 11 10 10 9 9 9 9 9 9 7
7 6 9 13 15 19 20 22 23 24 25 23 20 18 17 16 14 14 12 11 11 10 11 11 11 11 10 10 11 11 11 12 12 11 12 12 10 10 10 10 10 11 11
7 7 11 12 12 13 18 22 25 27 29 26 22 22 20 18 18 17 15 13 13 13 13 13 13 12 11 11 11 12 12 12 13 13 13 12 11 11 11 11 11 11 12
9 8 9 11 14 15 16 19 24 27 29 25 24 23 22 21 22 20 17 16 16 16 15 15 15 14 13 12 12 12 12 13 13 13 13 12 12 13 12 13 13 13 12
7 7 9 12 19 23 20 17 18 19 23 24 24 25 25 23 23 21 20 19 18 19 17 17 16 16 15 15 13 12 12 12 13 12 12 13 14 15 14 14 14 13 13
11 11 11 12 20 23 28 26 20 16 15 19 23 27 26 23 22 22 22 21 21 20 18 19 19 18 18 18 15 14 14 13 13 13 14 14 13 13 14 14 14 13 14
11 12 13 19 21 23 25 28 24 20 15 14 18 20 21 21 20 20 20 21 22 21 20 22 22 21 20 19 17 16 16 16 16 17 15 15 15 14 14 14 15 16 16
10 12 12 16 19 23 26 26 22 19 17 14 13 12 11 12 13 15 17 19 21 21 22 22 22 23 22 20 19 18 18 18 19 18 17 16 16 15 15 14 14 15 15
10 9 15 17 21 26 27 23 23 23 23 23 21 19 17 15 14 14 13 14 15 16 19 20 22 23 24 22 21 19 19 20 21 21 20 18 18 16 15 14 14 15 15
11 13 16 16 19 24 24 23 24 23 24 24 22 22 21 20 19 19 20 18 16 17 18 19 20 22 26 21 19 20 21 21 23 22 20 19 19 17 14 15 16 16 17
12 14 18 19 23 26 24 23 22 22 21 21 20 18 17 17 16 16 15 14 14 14 14 16 16 18 20 19 19 15 18 22 25 25 21 19 19 18 16 17 17 18 19
9 12 15 15 17 18 20 20 20 20 19 19 18 17 17 17 17 17 16 15 15 16 17 19 21 23 23 21 19 20 23 25 25 25 23 20 18 18 17 16 18 20 17
9 12 14 18 18 16 16 19 20 20 20 20 21 21 21 21 21 19 18 17 17 17 16 17 18 19 20 21 21 21 19 20 21 23 22 20 18 17 16 16 17 17 16
14 15 15 19 21 20 18 18 22 23 22 22 23 23 23 22 23 22 23 25 25 25 23 20 21 22 22 20 19 18 18 19 18 21 20 19 19 18 18 17 18 18 19
14 16 17 20 23 24 22 22 23 22 22 23 24 25 24 25 25 24 24 25 25 23 21 21 21 25 23 21 20 16 21 23 20 20 20 19 19 19 19 19 18 17 17
18 18 21 22 24 25 27 27 27 24 24 25 27 27 26 26 25 25 24 23 25 22 22 24 22 21 22 26 20 16 17 21 21 17 21 22 23 23 21 19 20 20 16
20 21 23 22 25 27 29 30 29 27 26 27 25 25 22 26 25 26 29 27 23 23 20 19 19 23 23 26 25 22 20 21 21 20 20 21 18 17 17 19 23 23 16
Wind_Direction
245 225 209 204 198 199 202 208 212 207 210 225 263 278 300 313 319 333 322 320 319 300 288 289 301 320 327 337 346 350 355 2 8 10 26 70 66 70 81 79 80 77 70
208 204 202 199 200 204 207 209 206 206 208 234 257 285 313 311 330 340 333 321 319 311 296 287 294 313 328 336 346 353 356 358 17 18 20 12 25 44 63 74 67 63 54
226 184 191 198 197 205 208 207 204 205 218 237 253 291 303 307 334 343 338 333 336 324 306 287 287 304 326 335 342 346 353 357 17 42 50 39 337 330 13 60 47 31 18
244 179 186 196 200 204 207 207 208 211 221 231 247 267 280 320 328 338 337 336 336 331 326 301 285 297 323 330 331 331 337 350 2 16 31 41 270 54 335 334 358 11 20
239 211 199 204 204 203 207 208 211 216 222 228 240 251 266 294 313 337 330 332 337 328 326 311 280 287 313 322 318 315 323 332 337 346 13 19 22 178 128 297 327 360 20
334 280 230 210 207 207 210 212 215 221 224 230 235 246 258 274 299 317 320 331 338 331 316 309 284 274 287 307 310 309 314 316 319 314 312 303 316 306 51 324 308 313 351
338 266 196 195 206 213 216 217 219 228 228 231 233 236 244 251 263 280 299 318 328 323 310 298 288 280 282 295 290 286 291 300 303 308 304 296 277 273 268 240 270 308 316
328 283 235 217 219 222 219 218 221 226 225 228 232 236 242 252 266 275 291 304 307 309 309 304 297 283 283 288 286 284 284 283 277 272 266 264 267 268 262 247 206 321 299
311 278 259 236 232 230 227 225 230 236 234 235 236 237 240 244 250 259 274 288 291 294 292 290 289 288 288 289 287 287 285 278 276 275 276 277 277 270 262 257 249 201 274
350 316 284 268 255 246 241 237 240 241 242 239 238 241 244 246 250 257 268 280 286 290 293 296 295 292 288 286 284 285 287 284 282 279 273 269 270 272 272 263 253 240 224
329 312 297 292 271 257 253 250 249 248 244 241 241 242 245 246 249 256 262 268 277 283 289 292 293 291 287 282 281 284 285 280 279 276 275 274 272 266 262 258 254 247 237
324 331 331 317 306 282 264 255 254 249 246 243 243 244 245 243 246 253 261 268 275 281 288 290 288 286 283 281 279 279 279 279 280 282 279 278 278 274 271 264 257 251 246
355 352 1 359 350 331 304 282 269 260 256 247 244 246 247 247 249 252 256 260 265 268 272 276 280 283 281 276 273 274 276 277 279 281 279 278 274 273 268 266 263 259 255
345 350 6 358 357 3 354 327 294 279 266 255 248 248 250 252 255 256 259 262 267 269 271 274 276 277 278 275 271 269 268 268 271 270 269 276 277 277 274 265 262 260 257
7 3 2 356 355 357 1 1 349 320 298 270 257 254 258 259 260 259 262 265 265 268 269 270 270 270 271 271 268 264 263 264 265 264 267 270 271 273 274 272 268 260 257
6 5 5 3 2 360 359 5 5 357 339 309 286 280 282 280 273 273 275 275 273 272 269 267 268 268 268 270 265 262 260 259 259 262 266 268 266 266 266 262 261 261 257
6 4 359 1 4 359 4 15 20 24 26 18 4 347 327 307 299 296 292 286 284 284 278 275 272 270 271 269 265 259 255 257 258 257 259 261 261 265 264 261 255 251 249
0 2 355 1 9 16 21 22 27 32 33 29 22 15 8 1 352 343 334 322 312 306 299 293 288 282 278 275 269 260 259 257 258 258 258 259 262 258 257 256 256 257 259
354 352 349 356 9 18 19 19 22 22 24 25 23 20 15 6 355 346 337 327 316 308 303 301 295 287 281 278 271 275 271 264 260 258 256 254 255 254 251 246 251 259 262
4 359 4 11 16 16 17 17 13 10 9 359 352 352 355 349 346 348 348 347 351 344 333 320 308 301 294 285 284 288 283 275 271 269 268 263 261 259 253 244 246 252 263
8 1 9 5 1 1 3 8 6 4 355 350 346 344 339 336 337 332 328 323 329 324 324 322 315 307 305 305 302 288 281 272 271 272 273 271 267 261 253 250 248 252 267
344 350 343 343 346 349 347 342 340 338 333 330 327 326 325 321 320 313 312 309 302 298 298 295 294 297 295 288 286 283 273 272 270 271 276 279 276 269 256 257 259 262 261
333 338 333 333 337 341 340 330 330 331 327 322 320 320 320 315 310 306 303 299 296 289 283 277 280 288 297 297 301 298 291 282 277 279 281 280 272 264 258 257 264 266 261
319 326 320 316 317 325 328 324 324 326 322 316 314 314 314 312 309 308 307 305 298 291 284 281 278 283 287 286 293 294 283 289 284 280 283 277 270 262 258 261 263 259 259
314 319 313 307 309 319 317 316 317 318 315 313 311 309 309 308 307 307 306 301 299 295 286 287 290 293 291 289 287 279 276 280 282 289 292 283 272 261 257 254 256 255 258
310 305 302 303 310 315 312 311 310 311 308 306 302 301 297 299 303 303 305 304 298 297 290 289 286 289 285 290 291 288 283 278 281 282 266 265 262 252 251 255 257 244 241